Weather History for Midland Airpark, TX

Change the Weather History Date:

Tuesday, April 30, 2013

  Actual Average (KMAF) Record (KMAF)
Temperature  
Mean Temperature 80 °F 69 °F  
Max Temperature 98 °F 83 °F 97 °F (2009)
Min Temperature 63 °F 54 °F 41 °F (1960)
Degree Days  
Heating Degree Days 0 1  
Month to date heating degree days 112  
Since 1 July heating degree days 2656  
Cooling Degree Days 15 5  
Month to date cooling degree days 90  
Year to date cooling degree days 108  
Growing Degree Days 30 (Base 50)    
Moisture  
Dew Point 46 °F    
Average Humidity 40    
Maximum Humidity 85    
Minimum Humidity 5    
Precipitation  
Precipitation 0.00 in 0.02 in 0.41 in (1966)
Month to date precipitation 0.65  
Year to date precipitation 2.52  
Snow  
Snow 0.00 in - - ()
Month to date snowfall  
Since 1 July snowfall  
Snow Depth -    
Sea Level Pressure  
Sea Level Pressure 29.73 in    
Wind  
Wind Speed 13 mph (South)    
Max Wind Speed 17 mph    
Max Gust Speed 28 mph    
Visibility 10 miles    
Events      
T = Trace of Precipitation, MM = Missing Value Source: NWS Daily Summary

Daily Weather History Graph

Daily Weather History Graph

Search for Another Location

Airport:

Trip Planner

Search our weather history database for the weather conditions in past years. The results will help you decide how hot, cold, wet, or windy it might be!

Date:

Astronomy

Apr. 30, 2013 Rise Set
Actual Time 7:03 AM CDT 8:28 PM CDT
Civil Twilight 6:37 AM CDT 8:54 PM CDT
Nautical Twilight 6:06 AM CDT 9:25 PM CDT
Astronomical Twilight 5:33 AM CDT 9:58 PM CDT
Moon 12:49 AM CDT (4/30) 11:37 AM CDT (4/30)
Length of Visible Light 14h 17m
Length of Day
13h 25m
Waning Gibbous, 70% of the Moon is Illuminated
Apr 30
Waning Gibbous
May 2
Last Quarter
May 9
New
May 17
First Quarter
May 24
Full

Hourly Weather History & Observations

Time (CDT) Temp. Dew Point Humidity Pressure Visibility Wind Dir Wind Speed Gust Speed Precip Events Conditions
12:15 AM 72.7 °F 49.1 °F 43% 29.78 in 10.0 mi South 16.1 mph 23.0 mph N/A   Clear
12:35 AM 72.5 °F 49.5 °F 44% 29.78 in 10.0 mi South 17.3 mph 20.7 mph N/A   Clear
12:55 AM 72.1 °F 49.6 °F 45% 29.78 in 10.0 mi South 12.7 mph - N/A   Clear
1:15 AM 71.8 °F 49.6 °F 45% 29.78 in 10.0 mi South 16.1 mph - N/A   Clear
1:35 AM 71.6 °F 49.6 °F 46% 29.78 in 10.0 mi South 13.8 mph 18.4 mph N/A   Clear
1:55 AM 71.2 °F 49.5 °F 46% 29.78 in 10.0 mi South 12.7 mph 20.7 mph N/A   Clear
2:15 AM 71.1 °F 49.1 °F 46% 29.78 in 10.0 mi South 13.8 mph 19.6 mph N/A   Clear
2:35 AM 70.5 °F 48.6 °F 46% 29.78 in 10.0 mi South 11.5 mph - N/A   Clear
2:55 AM 70.2 °F 48.6 °F 46% 29.78 in 10.0 mi South 11.5 mph 17.3 mph N/A   Clear
3:15 AM 68.9 °F 49.1 °F 49% 29.78 in 10.0 mi South 13.8 mph 18.4 mph N/A   Clear
3:35 AM 68.4 °F 49.5 °F 51% 29.77 in 10.0 mi South 12.7 mph 18.4 mph N/A   Clear
3:55 AM 68.0 °F 50.4 °F 53% 29.77 in 10.0 mi South 12.7 mph - N/A   Clear
4:15 AM 67.1 °F 51.1 °F 56% 29.77 in 10.0 mi South 11.5 mph - N/A   Clear
4:35 AM 66.7 °F 52.7 °F 61% 29.76 in 10.0 mi South 12.7 mph - N/A   Clear
4:55 AM 66.2 °F 53.8 °F 64% 29.75 in 10.0 mi South 13.8 mph 18.4 mph N/A   Clear
5:15 AM 66.0 °F 55.4 °F 69% 29.76 in 10.0 mi South 9.2 mph - N/A   Clear
5:35 AM 65.3 °F 55.8 °F 71% 29.76 in 10.0 mi South 9.2 mph - N/A   Clear
5:55 AM 65.3 °F 56.7 °F 74% 29.76 in 10.0 mi South 9.2 mph - N/A   Clear
6:15 AM 64.6 °F 57.4 °F 77% 29.76 in 10.0 mi South 8.1 mph - N/A   Clear
6:35 AM 64.6 °F 58.1 °F 79% 29.76 in 10.0 mi South 12.7 mph - N/A   Clear
6:55 AM 64.0 °F 58.5 °F 82% 29.77 in 10.0 mi South 12.7 mph 19.6 mph N/A   Clear
7:15 AM 63.7 °F 58.6 °F 84% 29.77 in 10.0 mi South 12.7 mph 19.6 mph N/A   Clear
7:35 AM 63.5 °F 59.0 °F 85% 29.77 in 10.0 mi South 11.5 mph - N/A   Clear
7:55 AM 63.9 °F 59.0 °F 84% 29.77 in 10.0 mi South 12.7 mph 18.4 mph N/A   Clear
8:15 AM 64.8 °F 59.2 °F 82% 29.77 in 10.0 mi South 12.7 mph 18.4 mph N/A   Mostly Cloudy
8:35 AM 65.5 °F 59.2 °F 80% 29.78 in 10.0 mi South 17.3 mph 23.0 mph N/A   Mostly Cloudy
8:55 AM 67.3 °F 59.0 °F 75% 29.77 in 10.0 mi South 16.1 mph 21.9 mph N/A   Scattered Clouds
9:15 AM 69.1 °F 59.0 °F 70% 29.77 in 10.0 mi South 15.0 mph 20.7 mph N/A   Clear
9:35 AM 70.5 °F 58.3 °F 65% 29.77 in 10.0 mi South 15.0 mph 20.7 mph N/A   Clear
9:55 AM 72.3 °F 57.6 °F 60% 29.77 in 10.0 mi South 16.1 mph 21.9 mph N/A   Clear
10:15 AM 73.9 °F 56.8 °F 55% 29.76 in 10.0 mi South 17.3 mph 25.3 mph N/A   Clear
10:35 AM 75.7 °F 55.4 °F 49% 29.77 in 10.0 mi South 15.0 mph 21.9 mph N/A   Clear
10:55 AM 77.4 °F 54.0 °F 44% 29.77 in 10.0 mi SSW 12.7 mph - N/A   Clear
11:15 AM 79.2 °F 53.4 °F 41% 29.77 in 10.0 mi SSW 11.5 mph - N/A   Clear
11:35 AM 80.4 °F 51.8 °F 37% 29.76 in 10.0 mi SSW 10.4 mph 20.7 mph N/A   Clear
11:55 AM 82.2 °F 50.5 °F 33% 29.76 in 10.0 mi South 12.7 mph 16.1 mph N/A   Clear
12:15 PM 83.5 °F 49.8 °F 31% 29.76 in 10.0 mi SSW 6.9 mph - N/A   Clear
12:55 PM 87.6 °F 40.6 °F 19% 29.74 in 10.0 mi WSW 5.8 mph 9.2 mph N/A   Clear
1:15 PM 88.2 °F 41.2 °F 19% 29.73 in 10.0 mi WSW 4.6 mph - N/A   Clear
1:55 PM 90.5 °F 39.2 °F 17% 29.72 in 10.0 mi SSW 8.1 mph - N/A   Clear
2:15 PM 90.9 °F 35.4 °F 14% 29.71 in 10.0 mi WSW 8.1 mph - N/A   Clear
2:35 PM 92.8 °F 34.7 °F 13% 29.71 in 10.0 mi SW 9.2 mph - N/A   Clear
2:55 PM 94.1 °F 34.5 °F 12% 29.70 in 10.0 mi SW 5.8 mph - N/A   Clear
3:35 PM 94.6 °F 33.3 °F 11% 29.69 in 10.0 mi SW 8.1 mph - N/A   Clear
3:55 PM 95.7 °F 30.0 °F 10% 29.68 in 10.0 mi SW 4.6 mph 16.1 mph N/A   Clear
4:35 PM 96.8 °F 26.1 °F 8% 29.66 in 10.0 mi SW 10.4 mph 17.3 mph N/A   Clear
4:55 PM 97.7 °F 19.6 °F 6% 29.66 in 10.0 mi South 8.1 mph - N/A   Clear
5:15 PM 97.0 °F 18.0 °F 6% 29.65 in 10.0 mi SSW 10.4 mph 16.1 mph N/A   Clear
5:35 PM 97.3 °F 20.1 °F 6% 29.65 in 10.0 mi West 11.5 mph 17.3 mph N/A   Clear
5:55 PM 97.7 °F 17.2 °F 5% 29.65 in 10.0 mi SW 8.1 mph 18.4 mph N/A   Clear
6:35 PM 95.5 °F 17.4 °F 6% 29.64 in 10.0 mi South 9.2 mph - N/A   Clear
6:55 PM 95.9 °F 18.5 °F 6% 29.64 in 10.0 mi South 9.2 mph - N/A   Clear
7:15 PM 95.7 °F 18.7 °F 6% 29.64 in 10.0 mi South 8.1 mph - N/A   Clear
7:35 PM 94.6 °F 18.5 °F 6% 29.64 in 10.0 mi South 9.2 mph - N/A   Clear
7:55 PM 91.9 °F 40.8 °F 17% 29.65 in 10.0 mi South 17.3 mph 27.6 mph N/A   Clear
8:15 PM 90.0 °F 40.3 °F 18% 29.66 in 10.0 mi South 12.7 mph - N/A   Clear
8:35 PM 88.9 °F 36.9 °F 16% 29.66 in 10.0 mi South 17.3 mph - N/A   Clear
8:55 PM 86.9 °F 45.9 °F 24% 29.66 in 10.0 mi South 13.8 mph - N/A   Clear
9:15 PM 85.5 °F 48.4 °F 28% 29.68 in 10.0 mi South 13.8 mph 20.7 mph N/A   Clear
9:35 PM 84.2 °F 49.5 °F 30% 29.69 in 10.0 mi SSE 13.8 mph - N/A   Clear
9:55 PM 83.3 °F 50.5 °F 32% 29.71 in 10.0 mi South 16.1 mph 23.0 mph N/A   Clear
10:15 PM 82.8 °F 50.0 °F 32% 29.72 in 10.0 mi SSE 15.0 mph 23.0 mph N/A   Clear
10:35 PM 81.7 °F 50.0 °F 33% 29.73 in 10.0 mi SSE 12.7 mph - N/A   Clear
10:55 PM 80.6 °F 49.5 °F 34% 29.74 in 10.0 mi SSE 12.7 mph - N/A   Clear
11:15 PM 80.2 °F 49.3 °F 34% 29.74 in 10.0 mi SSE 12.7 mph 18.4 mph N/A   Clear
11:35 PM 79.7 °F 49.1 °F 34% 29.75 in 10.0 mi SSE 9.2 mph - N/A   Clear
11:55 PM 78.1 °F 48.7 °F 36% 29.78 in 10.0 mi East 12.7 mph 18.4 mph N/A   Clear